Weather History for Delta, CO

Change the Weather History Date:

Thursday, March 7, 2013

  Actual Average (KMTJ) Record (KMTJ)
Temperature  
Mean Temperature 51 °F 39 °F  
Max Temperature 68 °F 52 °F 63 °F (2013)
Min Temperature 34 °F 26 °F 17 °F (2008)
Degree Days  
Heating Degree Days 14 26  
Month to date heating degree days 191  
Since 1 July heating degree days 4906  
Cooling Degree Days 0 0  
Month to date cooling degree days 0  
Year to date cooling degree days 0  
Growing Degree Days 1 (Base 50)    
Moisture  
Dew Point 18 °F    
Average Humidity 34    
Maximum Humidity 63    
Minimum Humidity 9    
Precipitation  
Precipitation 0.00 in 0.03 in 0.30 in (2014)
Month to date precipitation 0.24  
Year to date precipitation 1.47  
Sea Level Pressure  
Sea Level Pressure 29.95 in    
Wind  
Wind Speed 7 mph (NE)    
Max Wind Speed 17 mph    
Max Gust Speed 25 mph    
Visibility 10 miles    
Events      
T = Trace of Precipitation, MM = Missing Value Source: NWS Daily Summary

Daily Weather History Graph

Daily Weather History Graph

Search for Another Location

Airport:

Trip Planner

Search our weather history database for the weather conditions in past years. The results will help you decide how hot, cold, wet, or windy it might be!

Date:

Astronomy

Mar. 07, 2013 Rise Set
Actual Time 6:35 AM MST 6:11 PM MST
Civil Twilight 6:08 AM MST 6:38 PM MST
Nautical Twilight 5:37 AM MST 7:09 PM MST
Astronomical Twilight 5:07 AM MST 7:40 PM MST
Moon 3:35 AM MST (3/7) 2:04 PM MST (3/7)
Length of Visible Light 12h 29m
Length of Day
11h 36m
Waning Crescent, 19% of the Moon is Illuminated
Mar 7
Waning Crescent
Mar 11
New
Mar 19
First Quarter
Mar 27
Full
Apr 2
Last Quarter

Hourly Weather History & Observations

Time (MST) Temp. Windchill Dew Point Humidity Pressure Visibility Wind Dir Wind Speed Gust Speed Precip Events Conditions
12:15 AM 44.1 °F 39.5 °F 22.1 °F 42% 29.92 in 10.0 mi NE 8.1 mph - N/A   Clear
12:35 AM 43.7 °F 38.6 °F 21.9 °F 42% 29.92 in 10.0 mi NNE 9.2 mph - N/A   Clear
12:55 AM 42.4 °F 37.5 °F 22.5 °F 45% 29.93 in 10.0 mi East 8.1 mph - N/A   Clear
1:15 AM 41.7 °F 36.1 °F 22.1 °F 46% 29.94 in 10.0 mi ENE 9.2 mph - N/A   Clear
1:35 AM 41.5 °F 37.1 °F 22.5 °F 47% 29.94 in 10.0 mi NNE 6.9 mph - N/A   Clear
1:55 AM 41.0 °F 35.8 °F 23.0 °F 49% 29.94 in 10.0 mi NE 8.1 mph - N/A   Clear
2:15 AM 42.4 °F 36.1 °F 22.1 °F 44% 29.94 in 10.0 mi NE 11.5 mph - N/A   Clear
2:35 AM 42.8 °F 37.0 °F 21.9 °F 44% 29.93 in 10.0 mi NNE 10.4 mph - N/A   Clear
2:55 AM 43.7 °F 39.1 °F 21.9 °F 42% 29.92 in 10.0 mi NNE 8.1 mph - N/A   Clear
3:15 AM 43.7 °F 39.7 °F 22.1 °F 42% 29.93 in 10.0 mi NNE 6.9 mph - N/A   Clear
3:35 AM 40.5 °F 38.4 °F 23.0 °F 50% 29.93 in 10.0 mi NNE 3.5 mph - N/A   Clear
3:55 AM 40.3 °F 36.3 °F 23.4 °F 51% 29.94 in 10.0 mi NNE 5.8 mph - N/A   Clear
4:15 AM 39.9 °F 36.7 °F 22.5 °F 50% 29.95 in 10.0 mi East 4.6 mph - N/A   Clear
4:35 AM 39.2 °F 35.0 °F 22.3 °F 51% 29.96 in 10.0 mi NE 5.8 mph - N/A   Clear
4:55 AM 37.0 °F 32.4 °F 22.3 °F 55% 29.96 in 10.0 mi NE 5.8 mph - N/A   Clear
5:15 AM 40.5 °F 35.1 °F 22.3 °F 48% 29.96 in 10.0 mi NNE 8.1 mph - N/A   Clear
5:35 AM 40.3 °F 37.1 °F 22.1 °F 48% 29.96 in 10.0 mi NNE 4.6 mph - N/A   Clear
5:55 AM 35.6 °F - 23.0 °F 60% 29.97 in 10.0 mi Calm Calm - N/A   Clear
6:15 AM 37.0 °F - 23.0 °F 57% 29.98 in 10.0 mi Calm Calm - N/A   Clear
6:35 AM 34.7 °F 30.6 °F 23.4 °F 63% 29.99 in 10.0 mi North 4.6 mph - N/A   Clear
6:55 AM 35.6 °F 30.7 °F 23.9 °F 62% 30.00 in 10.0 mi North 5.8 mph - N/A   Clear
7:15 AM 37.2 °F - 23.5 °F 58% 30.00 in 10.0 mi Calm Calm - N/A   Clear
7:35 AM 36.9 °F - 24.3 °F 60% 30.01 in 10.0 mi Calm Calm - N/A   Clear
7:55 AM 38.3 °F 33.9 °F 25.3 °F 60% 30.02 in 10.0 mi NNE 5.8 mph - N/A   Clear
8:15 AM 39.6 °F 36.3 °F 25.2 °F 56% 30.03 in 10.0 mi NE 4.6 mph - N/A   Clear
8:35 AM 42.6 °F 40.9 °F 25.5 °F 51% 30.03 in 10.0 mi East 3.5 mph - N/A   Clear
8:55 AM 43.0 °F 38.8 °F 24.6 °F 48% 30.03 in 10.0 mi ENE 6.9 mph - N/A   Clear
9:15 AM 45.9 °F 41.7 °F 25.3 °F 45% 30.02 in 10.0 mi NE 8.1 mph - N/A   Clear
9:35 AM 49.5 °F - 24.4 °F 38% 30.02 in 10.0 mi ENE 9.2 mph - N/A   Clear
9:55 AM 52.0 °F - 23.9 °F 34% 30.01 in 10.0 mi East 10.4 mph - N/A   Clear
10:15 AM 54.5 °F - 24.1 °F 31% 30.00 in 10.0 mi NE 9.2 mph - N/A   Clear
10:35 AM 57.0 °F - 22.6 °F 26% 30.00 in 10.0 mi East 5.8 mph - N/A   Clear
10:55 AM 59.0 °F - 13.5 °F 17% 29.99 in 10.0 mi Calm Calm - N/A   Clear
11:15 AM 59.0 °F - 12.7 °F 16% 29.99 in 10.0 mi SE 3.5 mph - N/A   Clear
11:35 AM 59.4 °F - 11.7 °F 15% 29.99 in 10.0 mi Calm Calm - N/A   Clear
11:55 AM 60.8 °F - 11.1 °F 14% 29.98 in 10.0 mi North 3.5 mph - N/A   Clear
12:15 PM 61.3 °F - 10.8 °F 14% 29.98 in 10.0 mi WNW 3.5 mph - N/A   Clear
12:35 PM 62.4 °F - 10.9 °F 13% 29.96 in 10.0 mi Calm Calm - N/A   Clear
12:55 PM 62.4 °F - 10.9 °F 13% 29.95 in 10.0 mi SE 3.5 mph - N/A   Clear
1:15 PM 63.7 °F - 10.4 °F 12% 29.94 in 10.0 mi Calm Calm - N/A   Clear
1:35 PM 64.0 °F - 10.6 °F 12% 29.92 in 10.0 mi NW 4.6 mph - N/A   Clear
1:55 PM 64.6 °F - 10.2 °F 12% 29.92 in 10.0 mi WSW 5.8 mph - N/A   Clear
2:15 PM 66.2 °F - 9.3 °F 11% 29.91 in 10.0 mi South 11.5 mph 20.7 mph N/A   Clear
2:35 PM 67.5 °F - 6.6 °F 9% 29.91 in 10.0 mi West 10.4 mph 18.4 mph N/A   Clear
2:55 PM 68.0 °F - 6.6 °F 9% 29.90 in 10.0 mi SW 17.3 mph 25.3 mph N/A   Clear
3:15 PM 67.3 °F - 7.7 °F 10% 29.90 in 10.0 mi SW 12.7 mph 20.7 mph N/A   Clear
3:35 PM 67.1 °F - 8.1 °F 10% 29.90 in 10.0 mi SSW 15.0 mph 25.3 mph N/A   Clear
3:55 PM 67.1 °F - 7.3 °F 10% 29.90 in 10.0 mi WSW 17.3 mph 24.2 mph N/A   Clear
4:15 PM 66.4 °F - 7.3 °F 10% 29.89 in 10.0 mi SW 11.5 mph 16.1 mph N/A   Clear
4:35 PM 66.9 °F - 8.6 °F 10% 29.89 in 10.0 mi SSW 11.5 mph - N/A   Clear
4:55 PM 65.8 °F - 8.6 °F 11% 29.89 in 10.0 mi South 12.7 mph 17.3 mph N/A   Clear
6:35 PM 58.3 °F - 12.7 °F 17% 29.90 in 10.0 mi Calm Calm - N/A   Clear
6:55 PM 52.7 °F - 16.0 °F 23% 29.90 in 10.0 mi NE 4.6 mph - N/A   Scattered Clouds
7:15 PM 51.4 °F - 17.8 °F 26% 29.90 in 10.0 mi North 9.2 mph - N/A   Mostly Cloudy
7:35 PM 53.6 °F - 16.5 °F 23% 29.90 in 10.0 mi North 9.2 mph - N/A   Mostly Cloudy
7:55 PM 51.8 °F - 17.8 °F 26% 29.90 in 10.0 mi NNE 5.8 mph - N/A   Scattered Clouds
8:15 PM 53.6 °F - 16.2 °F 23% 29.89 in 10.0 mi North 4.6 mph - N/A   Scattered Clouds
8:35 PM 50.4 °F - 17.6 °F 27% 29.91 in 10.0 mi East 6.9 mph 10.4 mph N/A   Scattered Clouds
8:55 PM 50.7 °F - 17.4 °F 27% 29.91 in 10.0 mi ENE 8.1 mph - N/A   Scattered Clouds
9:15 PM 48.2 °F - 17.6 °F 30% 29.92 in 10.0 mi NE 6.9 mph - N/A   Clear
9:35 PM 46.4 °F 43.5 °F 18.0 °F 32% 29.92 in 10.0 mi NE 5.8 mph - N/A   Clear
9:55 PM 48.9 °F - 17.6 °F 29% 29.92 in 10.0 mi ENE 5.8 mph - N/A   Scattered Clouds
10:15 PM 47.1 °F - 18.5 °F 32% 29.92 in 10.0 mi ESE 5.8 mph - N/A   Scattered Clouds
10:35 PM 44.2 °F 41.8 °F 19.8 °F 38% 29.92 in 10.0 mi East 4.6 mph - N/A   Scattered Clouds
10:55 PM 45.0 °F 42.6 °F 18.5 °F 35% 29.92 in 10.0 mi ENE 4.6 mph - N/A   Mostly Cloudy
11:15 PM 42.3 °F 38.6 °F 19.2 °F 40% 29.92 in 10.0 mi NE 5.8 mph - N/A   Scattered Clouds
11:35 PM 41.2 °F 36.0 °F 20.1 °F 43% 29.92 in 10.0 mi ENE 8.1 mph - N/A   Clear
11:55 PM 41.2 °F 37.3 °F 19.0 °F 41% 29.93 in 10.0 mi ENE 5.8 mph - N/A   Clear